Location: Plymouth
(43.7490°N, 87.9770°W)
Time: 23:46:59
(UTC-06:00)

Daily predictions for brighter satellites

Satellite Brightness Start Highest point End
(mag) Time Altitude Azimuth Time Altitude Azimuth Time Altitude Azimuth
Cosmos 2366 rocket 4.3 17:11:38 10° N 17:17:35 44° ENE 17:23:26 10° SSE
Cosmos 44 Rocket 4.0 17:14:47 10° S 17:18:56 33° ESE 17:23:10 10° NE
Cosmos 1766 Rocket 4.4 17:15:32 10° SSE 17:19:19 30° E 17:23:05 10° NNE
IRAS Rocket 4.2 17:14:27 10° SSE 17:19:58 71° ENE 17:25:33 10° NNW
Cosmos 1777 Rocket 4.4 17:16:41 10° N 17:21:38 40° ENE 17:26:33 10° SE
FENGYUN 3A 4.2 17:20:29 10° SE 17:25:20 36° ENE 17:30:13 10° N
SL-14 R/B 3.3 17:23:13 10° S 17:27:08 61° E 17:31:02 10° NNE
Cosmos 1726 2.7 17:24:48 10° NNW 17:28:26 62° W 17:32:02 10° S
SPOT 3 Rocket 4.2 17:24:07 10° SE 17:28:37 31° ENE 17:33:07 10° N
Cosmos 1484 Rocket 3.6 17:25:54 10° S 17:29:37 55° W 17:33:18 10° NNW
Okean 3 Rocket 3.6 17:26:00 10° S 17:30:31 76° E 17:35:03 10° NNE
SKYMED 2 4.2 17:26:55 10° NNE 17:30:57 36° E 17:34:57 10° SSE
Cosmos 1151 Rocket 4.4 17:30:06 10° NNE 17:33:10 18° ENE 17:36:12 10° ESE
Meteor 1-28 Rocket 3.4 17:29:43 10° N 17:33:33 77° WNW 17:37:19 10° SSW
ATLAS 2AS CENTAUR R/B 4.3 17:27:49 10° NW 17:35:12 45° WSW 17:42:01 10° S
METEOR-M 4.1 17:31:00 10° SSE 17:36:19 71° ENE 17:41:40 10° N
Meteor 2-10 4.3 17:31:52 10° NNW 17:36:55 73° W 17:42:01 10° S
Cosmos 968 Rocket 4.0 17:32:00 10° NNW 17:37:07 65° WSW 17:42:09 10° S
Cosmos 2058 4.3 17:34:12 10° SE 17:37:12 19° E 17:40:12 10° NE
YAOGAN 1 2.5 17:34:13 10° SSE 17:38:30 68° ENE 17:42:49 10° N
Geosat 4.0 17:33:38 10° NNE 17:38:42 85° ESE 17:43:43 10° SSW
ALOS 2.5 17:34:52 10° SE 17:39:19 45° ENE 17:43:46 10° N
Cosmos 2221 3.7 17:40:43 10° NNW 17:44:56 48° W 17:49:09 10° SSW
BREEZE-M DEB 4.3 17:44:40 10° WNW 17:47:37 67° NNE 17:51:38 10° ESE
MONITOR-E 4.3 17:46:27 10° SSE 17:49:24 48° ENE 17:52:21 10° N
Cosmos 864 Rocket 4.5 17:44:03 10° N 17:50:25 75° E 17:56:42 10° SSE
SeaSat 1 4.3 17:47:22 10° S 17:51:53 36° WSW 17:56:26 10° NW
CZ-4 R/B 2.2 17:47:48 10° S 17:51:58 59° W 17:56:11 10° NNW
Meteor 1-27 4.4 17:47:24 10° N 17:52:57 50° ENE 17:58:33 10° SSE
TSX-5 3.4 17:52:51 10° SSW 17:56:02 80° WNW 17:59:42 10° NNE
Meteor 1-11 4.3 17:50:42 10° S 17:56:07 53° E 18:01:37 10° NNE
Cosmos 1346 Rocket 2.8 17:52:31 10° N 17:56:22 52° ENE 18:00:09 10° SSE
H-2A R/B 3.6 17:54:09 10° SE 17:57:26 28° ENE 18:00:48 10° N
COSMOS 2406 3.7 17:52:52 10° S 17:58:12 41° ESE 18:03:09 12° NE
NOSS 3-4 (A) 3.9 17:51:21 10° NW 17:58:25 88° NE 18:06:01 10° SE
CZ-4C R/B 4.0 17:57:26 10° ESE 17:57:47 10° ESE 17:57:47 10° ESE
NOSS 3-4 (C) 3.8 17:51:28 10° NW 17:58:31 87° NE 18:06:07 10° SE
RESURS DK-1 4.4 17:59:40 10° NNE 18:00:50 12° NE 18:00:50 12° NE
Cosmos 2151 3.6 17:57:53 10° SSE 18:01:43 33° E 18:05:35 10° NNE
Cosmos 1455 2.7 17:58:09 10° N 18:01:43 35° ENE 18:05:14 10° SE
Cosmos 1315 Rocket 3.0 17:58:52 10° SSW 18:02:47 72° WNW 18:06:43 10° N
Cosmos 2098 Rocket 3.9 17:58:12 10° N 18:03:31 59° E 18:10:03 10° SSE
CZ-2C R/B 4.2 18:02:16 10° N 18:06:58 66° WNW 18:11:32 10° SSW
Cosmos 1515 Rocket 3.8 18:04:53 10° N 18:09:03 44° ENE 18:13:11 10° SSE
Cosmos 1408 Rocket 3.5 18:04:51 10° S 18:09:09 88° W 18:13:29 10° N
FengYun 1-2 T 4.5 18:07:25 10° SE 18:12:46 47° ENE 18:18:06 10° N
Envisat 4.2 18:13:56 21° NE 18:13:56 21° NE 18:17:08 10° NNE
GEOS 3 Rocket 4.4 18:11:16 21° E 18:14:03 34° NE 18:18:53 10° NNW
Cosmos 1697 Rocket 4.3 18:11:22 10° N 18:14:14 15° NE 18:14:14 15° NE
Cosmos 1626 2.3 18:13:04 10° SSW 18:16:46 75° W 18:20:30 10° N
COSMO-SKYMED 1 2.9 18:14:45 10° N 18:19:05 68° WNW 18:23:23 10° SSW
Cosmos 44 3.6 18:17:06 10° SW 18:21:20 55° NW 18:24:51 15° NNE
Cosmos 1500 Rocket 3.8 18:18:24 10° SSE 18:22:42 48° E 18:26:10 15° NNE
EO 1 Del DPAF 3.1 18:20:17 10° NNE 18:24:08 86° ESE 18:27:58 10° SSW
Cosmos 371 Rocket 3.4 18:20:25 10° S 18:25:04 51° ESE 18:27:38 25° NE
Landsat 4 4.1 18:22:33 10° N 18:26:16 64° WNW 18:29:56 10° SSW
NOAA 12 4.3 18:22:32 10° S 18:27:45 74° WSW 18:33:01 10° NNW
Tiangong 1 2.8 18:28:57 10° WSW 18:30:49 19° SSW 18:31:25 17° S
Meteor 2-15 4.5 18:25:00 10° SSE 18:30:55 55° E 18:36:51 10° NNE
Cosmos 1743 Rocket 3.4 18:33:21 10° S 18:37:43 89° NW 18:42:05 10° N
Cosmos 2228 Rocket 3.2 18:33:08 10° N 18:37:44 84° W 18:42:19 10° S
ERS-2 2.3 18:34:06 10° S 18:37:46 72° WSW 18:41:29 10° NNW
Cosmos 1328 Rocket 4.1 18:35:03 10° NNW 18:39:21 59° W 18:43:36 10° S
USA 215 4.5 18:38:40 19° NE 18:41:48 28° N 18:47:09 10° WNW
Cosmos 1937 Rocket 4.4 18:39:09 10° N 18:42:49 30° NE 18:42:49 30° NE
Cosmos 1703 4.0 18:41:21 10° SSW 18:45:15 55° W 18:49:11 10° N
Thor Agena Rocket 3.7 18:44:12 39° ENE 18:45:29 48° E 18:50:30 10° S
Cosmos 1340 4.4 18:44:31 10° N 18:45:55 21° N 18:45:55 21° N
ERBS 3.4 18:46:32 10° NW 18:48:44 34° NNW 18:48:44 34° NNW
Cosmos 909 Rocket 4.2 18:50:31 10° NW 18:57:21 78° WSW 19:03:34 10° SSE
Meteor 2-15 Rocket 4.3 18:52:09 10° S 18:58:16 75° E 19:04:22 10° NNE
Cosmos 1821 Rocket 4.1 19:02:31 10° N 19:08:42 77° W 19:14:55 10° S
Cosmos 1535 Rocket 4.4 19:03:58 10° N 19:10:09 87° W 19:16:15 10° S
Cosmos 1151 Rocket 4.2 19:06:47 10° NNW 19:10:57 42° W 19:15:04 10° SSW
Cosmos 2058 4.5 19:10:01 10° SW 19:13:51 35° WNW 19:17:28 11° N
Cosmos 1980 Rocket 4.1 19:09:22 10° N 19:10:53 16° N 19:10:53 16° N
Cosmos 2082 Rocket 4.3 19:18:49 10° S 19:19:36 14° S 19:19:36 14° S
ATLAS 5 CENTAUR R/B 4.3 19:20:59 10° N 19:22:31 14° N 19:22:31 14° N
Cosmos 2208 Rocket 4.4 19:22:30 10° SSW 19:27:44 63° WNW 19:28:45 52° NNW
Cosmos 2278 4.2 19:27:20 10° NNW 19:31:28 48° N 19:31:28 48° N
Lacrosse 5 3.1 19:28:39 10° SSW 19:31:29 33° SSW 19:31:29 33° SSW
Cosmos 1898 Rocket 3.7 19:28:47 10° NNW 19:33:42 67° WNW 19:33:42 67° WNW
CZ-4C R/B 3.4 19:40:29 10° SSW 19:43:03 31° SSW 19:43:03 31° SSW
Cosmos 2369 4.4 19:42:09 10° NNW 19:46:19 49° NW 19:46:19 49° NW
Cosmos 1605 Rocket 4.3 19:45:12 10° NNW 19:50:11 58° NW 19:50:11 58° NW
GEOS 3 Rocket 4.3 19:52:24 51° WSW 19:52:24 51° WSW 19:57:09 10° NW
Envisat 4.4 19:54:07 32° NW 19:54:07 32° NW 19:57:00 10° NNW
Cosmos 1697 Rocket 4.4 19:53:52 10° NNW 19:56:00 24° NNW 19:56:00 24° NNW
